STARLINK-34266, 65093

Orbit data source: Space-Track

STARLINK-34266, 65093 is a payload satellite owned by SpaceX/Seattle (US) in LEO that was launched on Mon, 04 Aug 2025 UTC via an FALCON 9 launch vehicle from the Air Force Eastern Test Range (AFETR). Payload-class satellites include a variety of spacecraft equipped with specific instruments for various scientific and technological missions. These include communications satellites like Starlink; space stations such as the ISS; scientific satellites like the Hubble; Earth observation satellites from companies like Planet Labs, Umbra, and HawkEye 360; GPS; miniature CubeSats for education and research; and military/defense satellites.

Loading next visibility...
Identifier
65093, 2025-167R
Orbit
LEO
Country
Flag of USUS
Related business
Manufacturer
SpaceX/Seattle
Mission
Operational Commercial Communications
Bus & Motor
STARLINK V2MO, Unknown motor
Mass
575 kg wet, ~530 kg dry
Launch date (UTC)
2025-08-04 (9 months ago)
Launch vehicle
FALCON 9
Launch site
Air Force Eastern Test Range (AFETR)
Object type
Payload
Rocket body
Debris
Shape & HBR
Box + 2 Pan, 17.7 m
Radar Cross Section
36.964 m², Large (>1 m²)

Expand to show TLE details & history
Last TLE update: 10 hours ago

TLE from 10 hours ago
0 STARLINK-34266
1 65093U 25167R   26127.27969660  .00025683  00000-0  59749-3 0  9998
2 65093  53.1600 113.5612 0001087 113.9434 246.1686 15.42167925 42461
Epoch: 2026-05-07T06:42Z
TLE epoch observation values (Epoch: 2026-05-07T06:42:45.786Z)
Latitude
-0°
Longitude
147.74231°
Altitude
440.916 km
Speed
7.648 km/s
True Right ascension
07h 34m 14s
True Declination
0° 00' 00"
Sunlit
Object was in daylight at epoch
Visualization orbit readout
Latitude
Unknown
Longitude
Unknown
Altitude
Unknown
Speed
Unknown
Apparent Right ascension
Unknown
Apparent Declination
Unknown
Sunlit
N/A
Visualization observer readout
Local Sidereal Time
00:47:12
Azimuth
Unknown
Elevation
Unknown
Doppler factor
Unknown
Orbital elements
Apogee altitude
440.711 km
Perigee altitude
439.229 km
Semi-major axis
6,818.107 km
Eccentricity
0.00011
Inclination
53.16°
RAAN
113.5612°
Arg. of periapsis
113.9434°
True anomaly
246.15721°
Mean anomaly
246.1686°
Eccentric anomaly
246.1629°
Mean motion
3.8552 °/min
Orbital period
93.38 mins
BSTAR
0.00059749
Loading maneuver chart data...
Computing Atmospheric mass density...
Loading historical data...
Loading historical data...
Loading historical data...
Loading historical data...
Loading historical data...
Loading historical data...
Loading historical data...

Documentation

Showing up to 5 results
|